Language selection

Weather shortcuts

Pacific - North Coast: Past 24 Hour Conditions

 

Sandspit Airport

01:00 PM PDT 19 May 2024
Disclaimer

This table is a summary of hourly weather conditions for the past 24 hours.
Please note that these observations might not always be representative of weather conditions over their associated marine area.

Date / Time
(PDT)
Wind(knots) Conditions Visibility(km) Pressure(kPa) Air tempC) Relative humidity(%) Dew pointC)
19 May 2024
13:00 ESE 7 Cloudy 16 102.8 10 67 4
12:00 W 6 Cloudy 16 102.8 10 65 3
11:00 WNW 3 Cloudy 16 102.7 9 67 3
10:00 W 2 Cloudy 16 102.7 8 66 3
9:00 NW 3 Cloudy 16 102.7 8 68 3
8:00 WNW 6 Cloudy 16 102.7 8 66 2
7:00 W 8 Cloudy 16 102.7 7 77 4
6:00 W 8 Cloudy 16 102.6 7 75 3
5:00 WNW 8 Cloudy 16 102.6 7 70 2
4:00 WNW 10 Cloudy 16 102.5 7 70 2
3:00 NW 13 Cloudy 16 102.5 7 67 2
2:00 NW 13 Cloudy 16 102.5 8 70 3
1:00 NW 14 Cloudy 16 102.4 8 70 3
0:00 NW 11 Cloudy 16 102.4 8 72 3
18 May 2024
23:00 NW 14 Mostly Cloudy 16 102.4 9 70 3
22:00 NW 12 Mostly Cloudy 16 102.3 10 68 4
21:00 WNW 6 Cloudy 16 102.3 10 75 6
20:00 SW 3 Cloudy 16 102.3 10 72 5
19:00 WNW 2 Cloudy 16 102.2 10 68 5
18:00 ENE 4 Mostly Cloudy 16 102.2 11 65 4
17:00 NE 5 Sunny 16 102.2 11 62 4
16:00 NE 4 Mostly Cloudy 16 102.2 10 64 4
15:00 ENE 3 Partly Cloudy 16 102.2 10 64 4
14:00 NNE 3 Mainly Sunny 16 102.2 10 65 4
13:00 WNW 3 Partly Cloudy 16 102.2 10 63 3

Zoom-in to make a selection

Map of Pacific - North Coast marine weather areas Middle Nomad - 46004 South Nomad - 46036 Dixon Entrance Central - 46145 South Moresby - 46147 Nanakwa Shoal - 46181 North Hecate Strait - 46183 North Nomad - 46184 South Hecate Strait - 46185 West Sea Otter - 46204 West Dixon Entrance - 46205 East Dellwood - 46207 West Moresby - 46208 Sartine Island Cape St.James Kindakun Rocks Langara Island Masset Municipal Airport Rose Spit Sandspit Airport Bella Bella Airport Bella Coola Airport Bonilla Island Cathedral Point Cumshewa Island Grey Islet Holland Rock Lucy Islands Lightstation Prince Rupert Airport
Legend:
buoy Buoy
land station Land Station

Pacific - North Coast Area

Another Region

Date modified: